CW0565 Kristiansand NO current weather conditions

sailwx.info

Wind from 109 at 3 knots gusting 8

Air temperature 21.7° C
Dewpoint 13.3° C

Last reported at 2020-Aug-10 17:00 UTC.
Time now 2020-Aug-10 18:13 UTC

Location: N 58°16' E 007°57'.
View on Google Maps.

See reports from other nearby stations

  
Tides and Currents Weather Stations Pressure Air Temp Water Temp Dewpoint Dewpoint Depression Visibility Wind Speed Wind Dir Waves Ship Positions
date/time (UTC)wind fromknots sea level pressurealtimeterstation pressurevisibilityair tempwater tempwave heightnotes
2020-Aug-10 17:00 109 3 gusting 8 21.7
2020-Aug-10 16:55 065 2 gusting 8 21.7
2020-Aug-10 16:50 092 3 gusting 8 21.7
2020-Aug-10 16:45 040 1 gusting 8 21.7
2020-Aug-10 16:40 051 1 gusting 8 21.7
2020-Aug-10 16:35 105 3 gusting 7 21.7
2020-Aug-10 16:31 057 1 gusting 8 22.2
2020-Aug-10 16:25 051 2 gusting 8 22.2
2020-Aug-10 16:20 015 1 gusting 5 22.2
2020-Aug-10 16:16 058 0 gusting 6 22.8
2020-Aug-10 16:10 045 1 gusting 6 22.8
2020-Aug-10 16:05 327 1 gusting 5 22.8
2020-Aug-10 16:00 025 2 gusting 6 22.8
2020-Aug-10 15:55 067 22.8
2020-Aug-10 15:50 355 1 gusting 7 22.8
2020-Aug-10 15:45 059 1 gusting 8 23.3
2020-Aug-10 15:40 360 1 gusting 8 23.3
2020-Aug-10 15:35 042 3 gusting 6 23.3
2020-Aug-10 15:32 360 1 gusting 7 22.8
2020-Aug-10 15:25 120 1 gusting 8 22.8
2020-Aug-10 15:20 015 0 gusting 8 22.8
2020-Aug-10 15:15 067 0 gusting 8 23.3
2020-Aug-10 15:10 049 1 gusting 8 23.3
2020-Aug-10 15:05 084 0 gusting 6 22.8
2020-Aug-10 14:55 355 3 gusting 7 23.3
2020-Aug-10 14:50 015 2 gusting 7 23.3
2020-Aug-10 14:45 355 1 gusting 7 23.3
2020-Aug-10 14:40 360 2 gusting 7 23.3
2020-Aug-10 14:30 038 0 gusting 5 23.9
2020-Aug-10 14:25 014 1 gusting 7 23.3
2020-Aug-10 14:20 059 1 gusting 7 23.3
2020-Aug-10 14:10 082 2 gusting 8 22.8
2020-Aug-10 14:05 355 3 gusting 8 22.8
2020-Aug-10 14:00 360 1 gusting 11 22.2
2020-Aug-10 13:55 051 1 gusting 11 22.2
2020-Aug-10 13:50 028 6 gusting 10 22.2
2020-Aug-10 13:40 076 4 gusting 8 22.2
2020-Aug-10 13:35 026 0 gusting 8 22.8
2020-Aug-10 13:30 091 3 gusting 8 22.8
2020-Aug-10 13:25 021 1 gusting 8 22.8
2020-Aug-10 13:20 039 2 gusting 8 22.2
2020-Aug-10 13:10 090 1 gusting 7 22.2
2020-Aug-10 13:05 098 3 gusting 7 22.2
2020-Aug-10 12:55 091 3 gusting 7 21.7
2020-Aug-10 12:50 059 4 gusting 9 21.7
2020-Aug-10 12:45 068 2 gusting 9 21.7
2020-Aug-10 12:40 019 21.7
2020-Aug-10 12:35 017 2 gusting 6 21.7
2020-Aug-10 12:25 013 2 gusting 5 22.2
2020-Aug-10 12:20 075 0 gusting 6 22.2
2020-Aug-10 12:10 096 2 gusting 5 22.2
2020-Aug-10 12:05 037 0 gusting 6 21.7
2020-Aug-10 11:55 024 2 gusting 6 21.7
2020-Aug-10 11:50 111 0 gusting 5 21.1
2020-Aug-10 11:40 025 0 gusting 6 21.1
2020-Aug-10 11:30 005 0 gusting 8 21.1
2020-Aug-10 11:20 009 0 gusting 5 21.1
2020-Aug-10 11:15 042 1 gusting 7 21.1
2020-Aug-10 11:10 040 0 gusting 7 20.6
2020-Aug-10 11:05 005 1 gusting 7 20.6
2020-Aug-10 11:00 005 0 gusting 6 20.6
2020-Aug-10 10:51 005 1 gusting 8 20.6
2020-Aug-10 10:46 067 3 gusting 8 20.6
2020-Aug-10 10:41 068 1 gusting 8 20.6
2020-Aug-10 10:36 119 5 gusting 8 20.6
2020-Aug-10 10:31 059 1 gusting 5 20.6
2020-Aug-10 10:25 052 1 gusting 7 20.6
2020-Aug-10 10:20 010 3 gusting 7 20.6
2020-Aug-10 10:17 021 1 gusting 7 20.6
2020-Aug-10 10:11 038 1 gusting 7 20.0
2020-Aug-10 10:05 059 2 gusting 10 20.0
2020-Aug-10 10:01 043 6 gusting 10 19.4
2020-Aug-10 09:55 005 4 gusting 10 19.4
2020-Aug-10 09:50 023 6 gusting 11 19.4
2020-Aug-10 09:46 023 7 gusting 11 19.4
2020-Aug-10 09:40 026 5 gusting 10 19.4
2020-Aug-10 09:36 036 5 gusting 9 18.9
2020-Aug-10 09:25 042 6 gusting 13 18.9
2020-Aug-10 09:20 015 7 gusting 14 18.9
2020-Aug-10 09:16 022 7 gusting 14 18.9
2020-Aug-10 09:10 021 6 gusting 12 18.9
2020-Aug-10 09:05 016 6 gusting 13 18.9
2020-Aug-10 09:01 031 8 gusting 13 18.9
2020-Aug-10 08:55 053 6 gusting 12 18.9
2020-Aug-10 08:50 010 6 gusting 12 18.9
2020-Aug-10 08:46 355 6 gusting 13 18.9
2020-Aug-10 08:41 013 6 gusting 13 18.9
2020-Aug-10 08:35 355 6 gusting 15 18.9
2020-Aug-10 08:31 340 8 gusting 15 18.9
2020-Aug-10 08:25 013 6 gusting 12 18.9
2020-Aug-10 08:20 064 2 gusting 8 19.4
2020-Aug-10 08:17 015 1 gusting 10 18.9
2020-Aug-10 08:10 027 2 gusting 10 18.9
2020-Aug-10 08:05 042 3 gusting 9 19.4
2020-Aug-10 08:02 042 3 gusting 9 19.4
2020-Aug-10 07:55 360 2 gusting 9 20.0
2020-Aug-10 07:50 046 3 gusting 10 20.0
2020-Aug-10 07:46 005 2 gusting 10 19.4
2020-Aug-10 07:40 057 3 gusting 9 19.4
2020-Aug-10 07:35 050 5 gusting 8 18.9
2020-Aug-10 07:31 009 4 gusting 9 18.9
2020-Aug-10 07:25 005 6 gusting 9 18.3
2020-Aug-10 07:20 344 4 gusting 7 18.3
2020-Aug-10 07:16 355 2 gusting 5 17.8
2020-Aug-10 07:10 346 1 gusting 3 17.8
2020-Aug-10 07:05 345 0 gusting 2 17.2
2020-Aug-10 07:00 345 0 gusting 3 17.2
2020-Aug-10 06:55 345 1 gusting 3 16.7
2020-Aug-10 06:50 345 1 gusting 3 16.7
2020-Aug-10 06:46 345 1 gusting 3 16.7
2020-Aug-10 06:40 344 1 gusting 3 16.1
2020-Aug-10 06:35 350 2 gusting 4 16.1
2020-Aug-10 06:30 348 1 gusting 4 15.6
2020-Aug-10 06:25 009 1 gusting 4 15.6
2020-Aug-10 06:20 012 2 gusting 5 15.0
2020-Aug-10 06:15 013 2 gusting 5 15.0
2020-Aug-10 06:10 024 3 gusting 5 15.0
2020-Aug-10 06:05 013 2 gusting 5 14.4
2020-Aug-10 05:55 009 3 gusting 6 14.4
2020-Aug-10 05:50 005 3 gusting 6 13.9
2020-Aug-10 05:45 009 3 gusting 6 13.9
2020-Aug-10 05:40 342 3 gusting 6 13.9
2020-Aug-10 05:30 005 3 gusting 6 13.3
2020-Aug-10 05:25 005 4 gusting 6 13.3
2020-Aug-10 05:20 355 4 gusting 6 13.3
2020-Aug-10 05:15 346 4 gusting 6 13.3
2020-Aug-10 05:05 347 4 gusting 6 12.8
2020-Aug-10 05:02 360 3 gusting 6 12.8
2020-Aug-10 04:56 349 4 gusting 6 12.8
2020-Aug-10 04:51 355 4 gusting 6 12.8
2020-Aug-10 04:46 341 3 gusting 5 12.8
2020-Aug-10 04:40 346 2 gusting 6 12.8
2020-Aug-10 04:36 348 3 gusting 6 12.8
2020-Aug-10 04:31 342 4 gusting 7 12.8
2020-Aug-10 04:25 339 4 gusting 7 12.8
2020-Aug-10 04:21 344 4 gusting 7 12.8
2020-Aug-10 04:17 347 5 gusting 7 12.8
2020-Aug-10 04:11 342 4 gusting 6 12.8
2020-Aug-10 04:05 355 4 gusting 6 12.8
2020-Aug-10 04:01 336 4 gusting 6 12.8
2020-Aug-10 03:55 344 3 gusting 6 12.8
2020-Aug-10 03:50 355 4 gusting 6 12.8
2020-Aug-10 03:47 348 3 gusting 5 12.8
2020-Aug-10 03:40 355 3 gusting 6 12.8
2020-Aug-10 03:35 355 4 gusting 6 12.8
2020-Aug-10 03:31 355 4 gusting 6 12.8
2020-Aug-10 03:26 348 3 gusting 6 12.8
2020-Aug-10 03:20 355 3 gusting 6 12.8
2020-Aug-10 03:17 344 4 gusting 6 12.8
2020-Aug-10 03:10 360 4 gusting 6 12.8
2020-Aug-10 03:06 350 4 gusting 7 12.8
2020-Aug-10 03:02 005 4 gusting 7 12.8
2020-Aug-10 02:55 351 4 gusting 6 12.8
2020-Aug-10 02:50 355 4 gusting 6 12.8
2020-Aug-10 02:46 355 3 gusting 6 12.8
2020-Aug-10 02:40 355 3 gusting 6 12.8
2020-Aug-10 02:35 350 3 gusting 6 12.8
2020-Aug-10 02:32 342 4 gusting 8 12.8
2020-Aug-10 02:25 334 5 gusting 8 12.8
2020-Aug-10 02:20 350 4 gusting 6 12.8
2020-Aug-10 02:16 355 5 gusting 6 12.8
2020-Aug-10 02:10 350 4 gusting 6 13.3
2020-Aug-10 02:05 329 3 gusting 6 13.3
2020-Aug-10 02:00 355 4 gusting 6 13.3
2020-Aug-10 01:55 360 4 gusting 6 13.3
2020-Aug-10 01:50 346 4 gusting 6 13.3
2020-Aug-10 01:45 342 3 gusting 6 13.3
2020-Aug-10 01:40 347 4 gusting 6 13.3
2020-Aug-10 01:35 347 3 gusting 6 13.3
2020-Aug-10 01:31 346 3 gusting 6 13.3
2020-Aug-10 01:25 350 4 gusting 6 13.3
2020-Aug-10 01:20 344 4 gusting 6 13.3
2020-Aug-10 01:15 355 2 gusting 6 13.3
2020-Aug-10 01:10 350 4 gusting 6 13.3
2020-Aug-10 01:05 346 3 gusting 5 13.3
2020-Aug-10 01:00 349 3 gusting 6 13.3
2020-Aug-10 00:55 355 3 gusting 7 13.3
2020-Aug-10 00:50 349 3 gusting 5 13.3
2020-Aug-10 00:46 344 3 gusting 5 13.3
2020-Aug-10 00:40 343 2 gusting 4 13.3
2020-Aug-10 00:35 343 1 gusting 7 13.3
2020-Aug-10 00:31 343 3 gusting 7 13.3
2020-Aug-10 00:25 341 5 gusting 7 13.3
2020-Aug-10 00:20 010 5 gusting 7 13.3
2020-Aug-10 00:16 349 3 gusting 6 13.3
2020-Aug-10 00:10 360 3 gusting 6 13.9
2020-Aug-10 00:05 338 3 gusting 5 13.9
2020-Aug-10 00:01 355 3 gusting 6 13.9
2020-Aug-09 23:55 348 3 gusting 6 13.9
2020-Aug-09 23:50 355 3 gusting 6 13.9
2020-Aug-09 23:46 009 4 gusting 6 13.9
2020-Aug-09 23:40 347 3 gusting 6 13.9
2020-Aug-09 23:35 360 3 gusting 6 13.9
2020-Aug-09 23:30 005 3 gusting 6 13.9
2020-Aug-09 23:25 355 3 gusting 5 13.9
2020-Aug-09 23:20 349 1 gusting 4 13.9
2020-Aug-09 23:15 349 1 gusting 4 14.4
2020-Aug-09 23:10 344 1 gusting 4 14.4
2020-Aug-09 23:05 343 2 gusting 4 14.4
2020-Aug-09 23:00 360 0 gusting 2 14.4
2020-Aug-09 22:55 360 0 gusting 3 14.4
2020-Aug-09 22:50 360 1 gusting 3 14.4
2020-Aug-09 22:45 360 1 gusting 3 14.4
2020-Aug-09 22:40 360 0 gusting 5 14.4
2020-Aug-09 22:35 360 1 gusting 5 14.4
2020-Aug-09 22:30 339 1 gusting 5 14.4
2020-Aug-09 22:25 360 2 gusting 4 14.4
2020-Aug-09 22:20 335 14.4
2020-Aug-09 22:15 212 1 gusting 3 15.0
2020-Aug-09 22:10 207 0 gusting 3 15.0
2020-Aug-09 22:05 204 2 gusting 4 15.0
2020-Aug-09 21:50 196 1 gusting 3 15.0
2020-Aug-09 21:40 194 15.0
2020-Aug-09 21:35 194 0 gusting 3 15.0
2020-Aug-09 21:25 194 15.6
2020-Aug-09 21:15 194 15.6
2020-Aug-09 21:10 194 0 gusting 2 15.6
2020-Aug-09 21:05 194 15.6
2020-Aug-09 20:50 194 16.1
2020-Aug-09 20:45 194 0 gusting 1 16.1
2020-Aug-09 20:40 194 16.7
2020-Aug-09 20:35 194 16.7
2020-Aug-09 20:25 194 16.7
2020-Aug-09 20:15 194 17.2
2020-Aug-09 20:10 194 17.2
2020-Aug-09 20:05 194 17.2
2020-Aug-09 19:50 194 17.8
2020-Aug-09 19:40 194 18.3
2020-Aug-09 19:35 194 18.3
2020-Aug-09 19:25 194 18.3
2020-Aug-09 19:20 194 0 gusting 1 18.3
2020-Aug-09 19:15 194 18.9
2020-Aug-09 19:10 194 0 gusting 2 18.9
2020-Aug-09 19:05 194 0 gusting 2 18.9
2020-Aug-09 19:00 194 0 gusting 4 18.9
2020-Aug-09 18:50 194 3 gusting 5 18.9
2020-Aug-09 18:45 192 2 gusting 4 18.9
2020-Aug-09 18:40 192 2 gusting 4 18.9
2020-Aug-09 18:35 192 1 gusting 4 18.9
2020-Aug-09 18:30 192 2 gusting 4 19.4
2020-Aug-09 18:25 192 2 gusting 4 19.4
2020-Aug-09 18:20 192 2 gusting 4 19.4
2020-Aug-09 18:15 192 2 gusting 4 19.4
2020-Aug-09 18:10 192 2 gusting 4 19.4
2020-Aug-09 18:05 192 2 gusting 4 19.4
2020-Aug-09 17:50 192 2 gusting 4 19.4
2020-Aug-09 17:40 192 2 gusting 6 19.4
2020-Aug-09 17:35 192 1 gusting 5 19.4
2020-Aug-09 17:25 207 3 gusting 6 20.0
2020-Aug-09 17:20 208 1 gusting 6 20.0
2020-Aug-09 17:15 213 2 gusting 6 20.0
2020-Aug-09 17:10 192 3 gusting 7 20.0
2020-Aug-09 17:05 207 5 gusting 7 20.0
2020-Aug-09 16:50 202 4 gusting 7 20.0
2020-Aug-09 16:45 219 4 gusting 7 20.0
2020-Aug-09 16:40 218 2 gusting 6 20.0
2020-Aug-09 16:30 196 4 gusting 6 20.0
2020-Aug-09 16:25 232 3 gusting 6 20.6
2020-Aug-09 16:20 209 3 gusting 7 20.6
2020-Aug-09 16:15 224 4 gusting 7 20.6
2020-Aug-09 16:05 170 4 gusting 8 20.6
2020-Aug-09 16:00 205 4 gusting 8 20.6
2020-Aug-09 15:50 195 4 gusting 6 20.6
2020-Aug-09 15:40 193 3 gusting 7 21.1
2020-Aug-09 15:35 190 4 gusting 6 21.1
2020-Aug-09 15:30 172 3 gusting 7 21.1
2020-Aug-09 15:20 213 4 gusting 7 21.1
2020-Aug-09 15:10 186 4 gusting 9 21.1
2020-Aug-09 15:05 188 4 gusting 9 21.1
2020-Aug-09 15:00 155 5 gusting 8 21.1
2020-Aug-09 14:50 194 5 gusting 6 21.7
2020-Aug-09 14:40 166 3 gusting 7 21.7
2020-Aug-09 14:35 160 3 gusting 8 21.7
2020-Aug-09 14:30 184 5 gusting 8 21.1
2020-Aug-09 14:25 166 6 gusting 8 21.7
2020-Aug-09 14:20 192 5 gusting 8 21.7
2020-Aug-09 14:10 159 6 gusting 9 21.7
2020-Aug-09 14:05 202 6 gusting 10 21.7
2020-Aug-09 14:00 185 5 gusting 9 21.7
2020-Aug-09 13:50 144 4 gusting 8 22.2
2020-Aug-09 13:45 168 5 gusting 10 22.2
2020-Aug-09 13:35 142 3 gusting 7 22.2
2020-Aug-09 13:26 136 4 gusting 7 22.2
2020-Aug-09 13:21 157 3 gusting 10 22.2
2020-Aug-09 13:17 171 4 gusting 10 22.2
2020-Aug-09 13:11 122 4 gusting 9 22.2
2020-Aug-09 13:06 180 5 gusting 6 22.2
2020-Aug-09 13:03 128 3 gusting 7 22.2
2020-Aug-09 12:51 173 3 gusting 8 22.2
2020-Aug-09 12:46 191 3 gusting 8 22.2
2020-Aug-09 12:40 162 4 gusting 10 22.2
2020-Aug-09 12:36 173 5 gusting 11 22.2
2020-Aug-09 12:31 178 5 gusting 8 22.2
2020-Aug-09 12:25 170 5 gusting 8 22.2
2020-Aug-09 12:20 208 3 gusting 7 22.8
2020-Aug-09 12:16 203 3 gusting 6 22.2
2020-Aug-09 12:10 184 2 gusting 8 22.2
2020-Aug-09 12:06 153 4 gusting 8 22.2
2020-Aug-09 12:01 157 4 gusting 9 22.2
2020-Aug-09 11:50 224 6 gusting 8 22.2
2020-Aug-09 11:45 167 5 gusting 9 22.2
2020-Aug-09 11:40 168 3 gusting 6 22.2
2020-Aug-09 11:35 180 4 gusting 6 22.2
2020-Aug-09 11:25 195 4 gusting 7 22.8
2020-Aug-09 11:20 142 1 gusting 7 22.8
2020-Aug-09 11:10 151 1 gusting 5 22.8
2020-Aug-09 11:05 151 1 gusting 4 22.2
2020-Aug-09 10:51 168 1 gusting 6 22.2
2020-Aug-09 10:46 130 2 gusting 6 21.7
2020-Aug-09 10:40 144 0 gusting 4 22.2
2020-Aug-09 10:36 140 3 gusting 6 22.2
2020-Aug-09 10:25 145 0 gusting 4 22.2
2020-Aug-09 10:20 133 1 gusting 5 22.2
2020-Aug-09 10:16 209 2 gusting 7 21.7
2020-Aug-09 10:10 134 2 gusting 7 21.7
2020-Aug-09 10:05 175 0 gusting 5 21.7
2020-Aug-09 10:01 161 0 gusting 6 21.1
2020-Aug-09 09:50 148 1 gusting 7 21.1
2020-Aug-09 09:46 153 2 gusting 6 21.1
2020-Aug-09 09:41 133 2 gusting 6 21.7
2020-Aug-09 09:35 088 4 gusting 7 21.7
2020-Aug-09 09:31 080 2 gusting 7 21.7
2020-Aug-09 09:25 063 2 gusting 7 21.7
2020-Aug-09 09:20 058 1 gusting 7 21.7
2020-Aug-09 09:16 103 4 gusting 7 21.7
2020-Aug-09 09:11 074 2 gusting 7 21.7
2020-Aug-09 09:05 087 5 gusting 6 21.1
2020-Aug-09 09:01 070 0 gusting 7 21.1
2020-Aug-09 08:50 082 1 gusting 3 20.6
2020-Aug-09 08:46 355 20.6
2020-Aug-09 08:40 351 0 gusting 2 20.0
2020-Aug-09 08:35 355 20.0
2020-Aug-09 08:31 355 19.4
2020-Aug-09 08:25 355 1 gusting 4 19.4
2020-Aug-09 08:20 355 1 gusting 4 18.9
2020-Aug-09 08:17 355 1 gusting 4 18.9
2020-Aug-09 08:10 355 1 gusting 4 18.3
2020-Aug-09 08:05 355 0 gusting 4 18.3
2020-Aug-09 08:02 350 1 gusting 3 17.8
2020-Aug-09 07:50 350 1 gusting 3 17.8
2020-Aug-09 07:46 350 0 gusting 3 17.2
2020-Aug-09 07:40 350 0 gusting 3 17.2
2020-Aug-09 07:35 350 1 gusting 3 16.7
2020-Aug-09 07:30 350 0 gusting 3 16.7
2020-Aug-09 07:25 350 1 gusting 4 16.1
2020-Aug-09 07:20 350 1 gusting 4 16.1
2020-Aug-09 07:15 350 2 gusting 4 15.6
2020-Aug-09 07:10 350 2 gusting 4 15.6
2020-Aug-09 07:05 350 2 gusting 4 15.6
2020-Aug-09 07:00 350 2 gusting 5 15.0
2020-Aug-09 06:50 010 2 gusting 7 15.0
2020-Aug-09 06:46 360 3 gusting 6 15.0
2020-Aug-09 06:40 347 3 gusting 6 14.4
2020-Aug-09 06:35 345 3 gusting 6 14.4
2020-Aug-09 06:30 355 2 gusting 6 14.4
2020-Aug-09 06:25 010 3 gusting 6 14.4
2020-Aug-09 06:20 344 2 gusting 6 14.4
2020-Aug-09 06:15 013 4 gusting 6 13.9
2020-Aug-09 06:10 355 3 gusting 6 13.9
2020-Aug-09 06:05 011 4 gusting 6 13.9
2020-Aug-09 06:01 005 3 gusting 6 13.9
2020-Aug-09 05:50 355 4 gusting 6 13.3
2020-Aug-09 05:45 028 4 gusting 6 13.3
2020-Aug-09 05:40 351 3 gusting 6 12.8
2020-Aug-09 05:35 340 4 gusting 6 12.8
2020-Aug-09 05:25 346 4 gusting 7 12.2
2020-Aug-09 05:15 350 4 gusting 7 12.2
2020-Aug-09 05:10 336 5 gusting 7 12.2
2020-Aug-09 05:05 342 3 gusting 6 12.2
2020-Aug-09 04:50 340 3 gusting 7 11.7
2020-Aug-09 04:45 342 5 gusting 7 11.7
2020-Aug-09 04:40 337 4 gusting 7 11.7
2020-Aug-09 04:35 349 5 gusting 7 11.7
2020-Aug-09 04:25 355 4 gusting 7 11.7
2020-Aug-09 04:20 344 4 gusting 7 11.7
2020-Aug-09 04:15 346 5 gusting 7 11.7
2020-Aug-09 04:10 355 4 gusting 7 11.7
2020-Aug-09 04:05 011 4 gusting 7 11.7
2020-Aug-09 03:51 355 5 gusting 8 11.7
2020-Aug-09 03:46 345 4 gusting 8 11.7
2020-Aug-09 03:41 355 4 gusting 7 11.7
2020-Aug-09 03:35 348 3 gusting 7 11.7
2020-Aug-09 03:32 342 4 gusting 6 12.2
2020-Aug-09 03:25 344 3 gusting 6 12.2
2020-Aug-09 03:20 333 4 gusting 6 12.2
2020-Aug-09 03:16 351 3 gusting 6 12.2
2020-Aug-09 03:11 337 3 gusting 5 12.2
2020-Aug-09 03:05 336 3 gusting 5 12.2
2020-Aug-09 03:01 350 2 gusting 4 12.2
2020-Aug-09 02:46 350 2 gusting 4 12.2
2020-Aug-09 02:40 350 2 gusting 4 12.2
2020-Aug-09 02:36 350 3 gusting 4 12.8
2020-Aug-09 02:31 350 1 gusting 4 12.8
2020-Aug-09 02:26 350 2 gusting 5 12.8
2020-Aug-09 02:21 345 2 gusting 5 12.8
2020-Aug-09 02:16 344 2 gusting 5 12.8
2020-Aug-09 02:10 350 3 gusting 6 12.8
2020-Aug-09 02:05 345 3 gusting 6 12.8
2020-Aug-09 02:01 350 3 gusting 6 12.8
2020-Aug-09 01:50 347 3 gusting 6 12.8
2020-Aug-09 01:46 360 4 gusting 6 13.3
2020-Aug-09 01:40 340 3 gusting 6 13.3
2020-Aug-09 01:35 355 3 gusting 6 13.3
2020-Aug-09 01:32 355 3 gusting 5 13.3
2020-Aug-09 01:25 355 2 gusting 5 13.3
2020-Aug-09 01:20 346 1 gusting 7 13.3
2020-Aug-09 01:16 005 4 gusting 7 13.3
2020-Aug-09 01:10 355 3 gusting 6 13.3
2020-Aug-09 01:05 355 3 gusting 5 13.3
2020-Aug-09 01:00 346 3 gusting 5 13.9
2020-Aug-09 00:50 005 1 gusting 4 13.9
2020-Aug-09 00:45 349 0 gusting 3 13.9
2020-Aug-09 00:40 355 1 gusting 3 13.9
2020-Aug-09 00:35 005 1 gusting 3 13.9
2020-Aug-09 00:31 005 1 gusting 3 13.9
2020-Aug-09 00:25 005 13.9
2020-Aug-09 00:20 005 14.4
2020-Aug-09 00:16 005 1 gusting 4 14.4
2020-Aug-09 00:10 336 2 gusting 4 14.4
2020-Aug-09 00:05 334 1 gusting 3 14.4
2020-Aug-09 00:01 334 1 gusting 4 14.4
2020-Aug-08 23:50 204 15.0
2020-Aug-08 23:46 203 15.0
2020-Aug-08 23:40 204 15.0
2020-Aug-08 23:35 204 15.0
2020-Aug-08 23:32 204 15.0
2020-Aug-08 23:25 203 15.0
2020-Aug-08 23:20 204 15.6
2020-Aug-08 23:16 203 15.6
2020-Aug-08 23:10 203 16.1
2020-Aug-08 23:05 203 16.1
2020-Aug-08 23:01 204 16.1
2020-Aug-08 22:50 203 16.1
2020-Aug-08 22:46 204 16.7
2020-Aug-08 22:40 204 16.7
2020-Aug-08 22:35 203 16.7
2020-Aug-08 22:31 204 16.7
2020-Aug-08 22:25 204 16.7
2020-Aug-08 22:20 203 16.7
2020-Aug-08 22:16 203 16.7
2020-Aug-08 22:10 204 16.7
2020-Aug-08 22:05 204 16.7
2020-Aug-08 22:01 204 0 gusting 2 16.7
2020-Aug-08 21:50 204 17.2
2020-Aug-08 21:46 204 0 gusting 2 17.2
2020-Aug-08 21:40 204 0 gusting 2 17.8
2020-Aug-08 21:35 203 17.8
2020-Aug-08 21:30 204 18.3
2020-Aug-08 21:25 204 18.3
2020-Aug-08 21:20 204 18.3
2020-Aug-08 21:16 204 18.9
2020-Aug-08 21:10 204 18.9
2020-Aug-08 21:05 204 19.4
2020-Aug-08 21:01 204 19.4
2020-Aug-08 20:50 204 20.0
2020-Aug-08 20:45 204 20.0
2020-Aug-08 20:40 204 20.6
2020-Aug-08 20:35 204 20.6
2020-Aug-08 20:30 204 0 gusting 4 20.6
2020-Aug-08 20:25 204 2 gusting 4 20.6
2020-Aug-08 20:20 203 1 gusting 5 20.6
2020-Aug-08 20:16 204 2 gusting 6 21.1
2020-Aug-08 20:10 200 4 gusting 6 21.1
2020-Aug-08 20:05 197 3 gusting 6 21.1
2020-Aug-08 20:00 197 4 gusting 6 21.1
2020-Aug-08 19:50 196 3 gusting 5 21.1
2020-Aug-08 19:45 196 2 gusting 4 21.1
2020-Aug-08 19:40 196 1 gusting 3 21.1
2020-Aug-08 19:35 196 0 gusting 3 21.7
2020-Aug-08 19:31 196 1 gusting 3 21.7
2020-Aug-08 19:25 196 0 gusting 3 22.2
2020-Aug-08 19:20 196 1 gusting 4 22.2
2020-Aug-08 19:15 196 1 gusting 4 22.2
2020-Aug-08 19:10 196 2 gusting 4 22.2
2020-Aug-08 19:05 196 2 gusting 5 22.2
2020-Aug-08 19:00 196 2 gusting 5 22.2
2020-Aug-08 18:50 196 3 gusting 6 22.2
2020-Aug-08 18:46 196 3 gusting 6 22.8
2020-Aug-08 18:40 196 4 gusting 6 22.8
2020-Aug-08 18:35 196 4 gusting 6 22.8
2020-Aug-08 18:30 196 4 gusting 6 22.8
2020-Aug-08 18:25 196 4 gusting 6 22.8
2020-Aug-08 18:20 196 4 gusting 6 22.8
2020-Aug-08 18:15 196 4 gusting 6 23.3
2020-Aug-08 18:11 196 5 gusting 7 23.3
2020-Aug-08 18:05 196 5 gusting 7 23.3
2020-Aug-08 18:01 196 5 gusting 7 23.3